| time (UTC) | temp F | wind direction | speed MPH | gust MPH | rain 1hr in | rain 24hr in | rain mn in | humidity % | barometer mb |
| 20260508115006 | 51 | 27 | 0.0 | 1.0 | 0.00 | 0.00 | 0.00 | 78 | 1010.8 |
| 20260508114505 | 50 | 29 | 0.0 | 1.0 | 0.00 | 0.00 | 0.00 | 79 | 1010.7 |
| 20260508114004 | 50 | 16 | 0.0 | 1.0 | 0.00 | 0.00 | 0.00 | 80 | 1010.7 |
| 20260508113505 | 50 | 9 | 0.0 | 1.0 | 0.00 | 0.00 | 0.00 | 81 | 1010.7 |
| 20260508113005 | 50 | 33 | 0.0 | 1.0 | 0.00 | 0.00 | 0.00 | 82 | 1010.6 |
| 20260508112505 | 49 | 18 | 0.0 | 1.0 | 0.00 | 0.00 | 0.00 | 83 | 1010.6 |
| 20260508112006 | 49 | 4 | 0.0 | 0.0 | 0.00 | 0.00 | 0.00 | 84 | 1010.7 |
| 20260508111505 | 49 | 4 | 0.0 | 0.0 | 0.00 | 0.00 | 0.00 | 84 | 1010.6 |
| 20260508110004 | 48 | 4 | 0.0 | 0.0 | 0.00 | 0.00 | 0.00 | 86 | 1010.5 |
| 20260508105003 | 47 | 4 | 0.0 | 0.0 | 0.00 | 0.00 | 0.00 | 86 | 1010.4 |
| 20260508104004 | 47 | 4 | 0.0 | 0.0 | 0.00 | 0.00 | 0.00 | 86 | 1010.3 |
| 20260508103004 | 46 | 4 | 0.0 | 0.0 | 0.00 | 0.00 | 0.00 | 86 | 1010.4 |
| 20260508102502 | 46 | 4 | 0.0 | 0.0 | 0.00 | 0.00 | 0.00 | 86 | 1010.3 |
| 20260508102004 | 46 | 4 | 0.0 | 0.0 | 0.00 | 0.00 | 0.00 | 85 | 1010.3 |
| 20260508101503 | 46 | 4 | 0.0 | 0.0 | 0.00 | 0.00 | 0.00 | 85 | 1010.2 |
| 20260508100501 | 46 | 4 | 0.0 | 0.0 | 0.00 | 0.00 | 0.00 | 84 | 1010.1 |
| 20260508095500 | 47 | 4 | 0.0 | 1.0 | 0.00 | 0.00 | 0.00 | 84 | 1010.1 |
| 20260508093958 | 47 | 359 | 0.0 | 1.0 | 0.00 | 0.00 | 0.00 | 84 | 1010.0 |
| 20260508093456 | 47 | 354 | 0.0 | 1.0 | 0.00 | 0.00 | 0.00 | 84 | 1009.9 |
| 20260508092957 | 47 | 9 | 0.0 | 1.0 | 0.00 | 0.00 | 0.00 | 84 | 1009.9 |
| 20260508092458 | 47 | 16 | 0.0 | 1.0 | 0.00 | 0.00 | 0.00 | 84 | 1010.0 |
| 20260508091957 | 47 | 33 | 0.0 | 1.0 | 0.00 | 0.00 | 0.00 | 84 | 1010.0 |
| 20260508091458 | 47 | 33 | 0.0 | 1.0 | 0.00 | 0.00 | 0.00 | 84 | 1009.9 |
| 20260508090956 | 46 | 33 | 0.0 | 1.0 | 0.00 | 0.00 | 0.00 | 84 | 1009.7 |
| 20260508090456 | 46 | 38 | 0.0 | 1.0 | 0.00 | 0.00 | 0.00 | 84 | 1009.7 |
| 20260508085956 | 47 | 39 | 0.0 | 1.0 | 0.00 | 0.00 | 0.00 | 84 | 1009.7 |
| 20260508085456 | 47 | 38 | 0.0 | 1.0 | 0.00 | 0.00 | 0.00 | 84 | 1009.7 |
| 20260508084957 | 47 | 44 | 0.0 | 1.0 | 0.00 | 0.00 | 0.00 | 84 | 1009.6 |
| 20260508084458 | 47 | 44 | 1.0 | 1.0 | 0.00 | 0.00 | 0.00 | 84 | 1009.7 |
| 20260508083957 | 46 | 41 | 1.0 | 1.0 | 0.00 | 0.00 | 0.00 | 84 | 1009.5 |
| 20260508083458 | 46 | 44 | 0.0 | 1.0 | 0.00 | 0.00 | 0.00 | 84 | 1009.5 |
| 20260508082958 | 46 | 66 | 0.0 | 1.0 | 0.00 | 0.00 | 0.00 | 84 | 1009.5 |
| 20260508082458 | 46 | 42 | 0.0 | 1.0 | 0.00 | 0.00 | 0.00 | 84 | 1009.5 |
| 20260508080957 | 46 | 40 | 0.0 | 1.0 | 0.00 | 0.00 | 0.00 | 84 | 1009.5 |
| 20260508080458 | 46 | 38 | 0.0 | 1.0 | 0.00 | 0.00 | 0.00 | 84 | 1009.5 |
| 20260508075956 | 46 | 37 | 0.0 | 1.0 | 0.00 | 0.00 | 0.00 | 84 | 1009.5 |
| 20260508074954 | 46 | 48 | 1.0 | 1.0 | 0.00 | 0.00 | 0.00 | 83 | 1009.7 |
| 20260508074455 | 47 | 32 | 1.0 | 2.0 | 0.00 | 0.00 | 0.00 | 83 | 1009.7 |
| 20260508073955 | 47 | 48 | 1.0 | 2.0 | 0.00 | 0.00 | 0.00 | 83 | 1009.7 |
| 20260508073455 | 47 | 52 | 1.0 | 2.0 | 0.00 | 0.00 | 0.00 | 83 | 1009.9 |
| 20260508072955 | 46 | 41 | 1.0 | 2.0 | 0.00 | 0.00 | 0.00 | 82 | 1009.8 |
| 20260508072455 | 46 | 40 | 1.0 | 2.0 | 0.00 | 0.00 | 0.00 | 82 | 1009.8 |
| 20260508071955 | 46 | 44 | 0.0 | 1.0 | 0.00 | 0.00 | 0.00 | 82 | 1009.9 |
| 20260508070955 | 47 | 50 | 1.0 | 2.0 | 0.00 | 0.00 | 0.00 | 81 | 1010.0 |
| 20260508070450 | 47 | 44 | 1.0 | 2.0 | 0.00 | 0.00 | 0.00 | 81 | 1010.1 |
| 20260508065951 | 47 | 48 | 1.0 | 2.0 | 0.00 | 0.00 | 0.00 | 80 | 1010.1 |
| 20260508065450 | 47 | 54 | 1.0 | 4.0 | 0.00 | 0.00 | 0.00 | 79 | 1010.2 |
| 20260508064950 | 47 | 50 | 2.0 | 8.0 | 0.00 | 0.00 | 0.00 | 77 | 1010.2 |
| 20260508063450 | 50 | 63 | 2.0 | 14.0 | 0.00 | 0.00 | 0.00 | 66 | 1009.9 |
| 20260508062948 | 50 | 60 | 1.0 | 3.0 | 0.00 | 0.00 | 0.00 | 60 | 1009.7 |
| 20260508062449 | 50 | 48 | 1.0 | 3.0 | 0.00 | 0.00 | 0.00 | 58 | 1009.4 |
| 20260508061948 | 50 | 53 | 1.0 | 4.0 | 0.00 | 0.00 | 0.00 | 60 | 1009.3 |
| 20260508061449 | 50 | 41 | 1.0 | 4.0 | 0.00 | 0.00 | 0.00 | 61 | 1009.2 |
| 20260508060950 | 50 | 46 | 1.0 | 2.0 | 0.00 | 0.00 | 0.00 | 61 | 1008.7 |
| 20260508060449 | 49 | 43 | 0.0 | 2.0 | 0.00 | 0.00 | 0.00 | 62 | 1008.1 |
| 20260508055448 | 49 | 91 | 0.0 | 1.0 | 0.00 | 0.00 | 0.00 | 62 | 1007.9 |
| 20260508054949 | 50 | 91 | 0.0 | 1.0 | 0.00 | 0.00 | 0.00 | 62 | 1007.9 |
| 20260508054447 | 50 | 99 | 0.0 | 0.0 | 0.00 | 0.00 | 0.00 | 62 | 1007.9 |
| 20260508053947 | 50 | 99 | 0.0 | 0.0 | 0.00 | 0.00 | 0.00 | 61 | 1007.9 |
| 20260508053447 | 50 | 99 | 0.0 | 2.0 | 0.00 | 0.00 | 0.00 | 59 | 1007.8 |
| 20260508052946 | 50 | 99 | 0.0 | 2.0 | 0.00 | 0.00 | 0.00 | 59 | 1007.7 |
| 20260508052446 | 51 | 100 | 0.0 | 1.0 | 0.00 | 0.00 | 0.00 | 59 | 1007.7 |
| 20260508051947 | 51 | 124 | 0.0 | 1.0 | 0.00 | 0.00 | 0.00 | 59 | 1007.8 |
| 20260508051447 | 51 | 125 | 0.0 | 0.0 | 0.00 | 0.00 | 0.00 | 59 | 1008.0 |
| 20260508050448 | 51 | 125 | 0.0 | 0.0 | 0.00 | 0.00 | 0.00 | 59 | 1007.9 |
| 20260508045947 | 51 | 125 | 0.0 | 0.0 | 0.00 | 0.00 | 0.00 | 58 | 1007.8 |
| 20260508045446 | 51 | 126 | 0.0 | 0.0 | 0.00 | 0.00 | 0.00 | 57 | 1007.7 |
| 20260508044944 | 52 | 118 | 0.0 | 1.0 | 0.00 | 0.00 | 0.00 | 56 | 1007.7 |
| 20260508044442 | 52 | 87 | 0.0 | 2.0 | 0.00 | 0.00 | 0.00 | 56 | 1007.6 |
| 20260508043943 | 52 | 91 | 0.0 | 2.0 | 0.00 | 0.00 | 0.00 | 56 | 1007.7 |
| 20260508042941 | 52 | 118 | 0.0 | 1.0 | 0.00 | 0.00 | 0.00 | 56 | 1007.6 |
| 20260508042440 | 52 | 97 | 0.0 | 2.0 | 0.00 | 0.00 | 0.00 | 57 | 1007.7 |
| 20260508041942 | 52 | 93 | 0.0 | 2.0 | 0.00 | 0.00 | 0.00 | 57 | 1007.7 |
| 20260508041442 | 52 | 81 | 0.0 | 2.0 | 0.00 | 0.00 | 0.00 | 57 | 1007.6 |
| 20260508035940 | 53 | 86 | 0.0 | 1.0 | 0.00 | 0.00 | 0.00 | 57 | 1007.8 |
| 20260508034940 | 52 | 85 | 0.0 | 1.0 | 0.00 | 0.00 | 0.00 | 57 | 1007.8 |
| 20260508033938 | 52 | 91 | 0.0 | 1.0 | 0.00 | 0.00 | 0.00 | 58 | 1007.8 |
| 20260508033438 | 52 | 94 | 0.0 | 1.0 | 0.00 | 0.00 | 0.00 | 59 | 1007.8 |
| 20260508032939 | 52 | 68 | 0.0 | 0.0 | 0.00 | 0.00 | 0.00 | 58 | 1007.7 |
| 20260508032439 | 52 | 68 | 0.0 | 1.0 | 0.00 | 0.00 | 0.00 | 57 | 1007.7 |
| 20260508031940 | 53 | 70 | 0.0 | 1.0 | 0.00 | 0.00 | 0.00 | 56 | 1007.6 |
| 20260508031440 | 53 | 69 | 0.0 | 1.0 | 0.00 | 0.00 | 0.00 | 56 | 1007.6 |
| 20260508030939 | 53 | 60 | 0.0 | 1.0 | 0.00 | 0.00 | 0.00 | 56 | 1007.7 |
| 20260508030439 | 53 | 60 | 0.0 | 1.0 | 0.00 | 0.00 | 0.00 | 55 | 1007.7 |
| 20260508025938 | 53 | 60 | 0.0 | 1.0 | 0.00 | 0.00 | 0.00 | 55 | 1007.7 |
| 20260508024939 | 53 | 60 | 0.0 | 0.0 | 0.00 | 0.00 | 0.00 | 54 | 1007.7 |
| 20260508023940 | 54 | 60 | 0.0 | 1.0 | 0.00 | 0.00 | 0.00 | 53 | 1007.7 |
| 20260508023439 | 54 | 62 | 0.0 | 1.0 | 0.00 | 0.00 | 0.00 | 53 | 1007.6 |
| 20260508022939 | 54 | 62 | 0.0 | 1.0 | 0.00 | 0.00 | 0.00 | 52 | 1007.7 |
| 20260508021939 | 55 | 62 | 0.0 | 0.0 | 0.00 | 0.00 | 0.00 | 52 | 1007.6 |
| 20260508021439 | 55 | 62 | 0.0 | 0.0 | 0.00 | 0.00 | 0.00 | 52 | 1007.6 |
| 20260508020438 | 55 | 62 | 0.0 | 0.0 | 0.00 | 0.00 | 0.00 | 49 | 1007.5 |
| 20260508015939 | 56 | 62 | 0.0 | 0.0 | 0.00 | 0.00 | 0.00 | 48 | 1007.5 |
| 20260508015438 | 56 | 62 | 0.0 | 1.0 | 0.00 | 0.00 | 0.00 | 47 | 1007.5 |
| 20260508014940 | 56 | 62 | 0.0 | 1.0 | 0.00 | 0.00 | 0.00 | 46 | 1007.5 |
| 20260508014440 | 56 | 62 | 0.0 | 1.0 | 0.00 | 0.00 | 0.00 | 46 | 1007.6 |
| 20260508013938 | 56 | 62 | 0.0 | 1.0 | 0.00 | 0.00 | 0.00 | 46 | 1007.5 |
| 20260508012939 | 57 | 64 | 0.0 | 0.0 | 0.00 | 0.00 | 0.00 | 46 | 1007.5 |
| 20260508012439 | 57 | 64 | 0.0 | 1.0 | 0.00 | 0.00 | 0.00 | 45 | 1007.4 |
| 20260508011938 | 57 | 64 | 0.0 | 1.0 | 0.00 | 0.00 | 0.00 | 44 | 1007.3 |
| 20260508011438 | 57 | 64 | 0.0 | 1.0 | 0.00 | 0.00 | 0.00 | 45 | 1007.3 |
| 20260508010939 | 58 | 64 | 0.0 | 1.0 | 0.00 | 0.00 | 0.00 | 44 | 1007.3 |
| 20260508005940 | 58 | 64 | 0.0 | 1.0 | 0.00 | 0.00 | 0.00 | 43 | 1007.2 |
| 20260508005436 | 58 | 64 | 0.0 | 1.0 | 0.00 | 0.00 | 0.00 | 43 | 1007.2 |
| 20260508004936 | 58 | 64 | 0.0 | 0.0 | 0.00 | 0.00 | 0.00 | 43 | 1007.1 |
| 20260508003933 | 58 | 62 | 0.0 | 1.0 | 0.00 | 0.00 | 0.00 | 43 | 1007.0 |
| 20260508003433 | 58 | 66 | 0.0 | 1.0 | 0.00 | 0.00 | 0.00 | 42 | 1006.9 |
| 20260508002933 | 58 | 81 | 0.0 | 0.0 | 0.00 | 0.00 | 0.00 | 43 | 1006.9 |
| 20260508002432 | 59 | 81 | 0.0 | 0.0 | 0.00 | 0.00 | 0.00 | 43 | 1006.8 |
| 20260508001933 | 59 | 81 | 0.0 | 0.0 | 0.00 | 0.00 | 0.00 | 44 | 1006.6 |
| 20260508001434 | 59 | 81 | 0.0 | 0.0 | 0.00 | 0.00 | 0.00 | 43 | 1006.5 |
| 20260508000933 | 59 | 81 | 0.0 | 0.0 | 0.00 | 0.00 | 0.00 | 44 | 1006.5 |
| 20260508000434 | 60 | 81 | 0.0 | 1.0 | 0.00 | 0.00 | 0.00 | 42 | 1006.6 |
| 20260507235932 | 60 | 81 | 0.0 | 1.0 | 0.00 | 0.00 | 0.00 | 41 | 1006.6 |
| 20260507235433 | 60 | 48 | 0.0 | 1.0 | 0.00 | 0.00 | 0.00 | 41 | 1006.5 |
| 20260507234930 | 60 | 48 | 0.0 | 1.0 | 0.00 | 0.00 | 0.00 | 40 | 1006.4 |
| 20260507234431 | 60 | 48 | 0.0 | 1.0 | 0.00 | 0.00 | 0.00 | 40 | 1006.3 |
| 20260507233930 | 60 | 50 | 0.0 | 1.0 | 0.00 | 0.00 | 0.00 | 40 | 1006.3 |
| 20260507233431 | 61 | 60 | 0.0 | 1.0 | 0.00 | 0.00 | 0.00 | 40 | 1006.2 |
| 20260507232931 | 61 | 60 | 0.0 | 1.0 | 0.00 | 0.00 | 0.00 | 41 | 1006.2 |
| 20260507231431 | 61 | 37 | 0.0 | 2.0 | 0.00 | 0.00 | 0.00 | 40 | 1006.1 |
| 20260507230930 | 61 | 35 | 0.0 | 2.0 | 0.00 | 0.00 | 0.00 | 39 | 1006.1 |
| 20260507230431 | 61 | 41 | 0.0 | 4.0 | 0.00 | 0.00 | 0.00 | 38 | 1005.9 |
| 20260507225928 | 62 | 21 | 0.0 | 4.0 | 0.00 | 0.00 | 0.00 | 37 | 1005.9 |
| 20260507224928 | 62 | 34 | 0.0 | 3.0 | 0.00 | 0.00 | 0.00 | 38 | 1006.0 |
| 20260507224428 | 62 | 32 | 0.0 | 3.0 | 0.00 | 0.00 | 0.00 | 38 | 1006.0 |
| 20260507223928 | 62 | 33 | 0.0 | 4.0 | 0.00 | 0.00 | 0.00 | 37 | 1005.8 |
| 20260507223428 | 62 | 61 | 0.0 | 4.0 | 0.00 | 0.00 | 0.00 | 37 | 1005.9 |
| 20260507222929 | 63 | 45 | 0.0 | 4.0 | 0.00 | 0.00 | 0.00 | 38 | 1005.8 |
| 20260507222429 | 63 | 26 | 0.0 | 4.0 | 0.00 | 0.00 | 0.00 | 37 | 1005.8 |
| 20260507221928 | 63 | 69 | 0.0 | 2.0 | 0.00 | 0.00 | 0.00 | 37 | 1005.9 |
| 20260507221429 | 63 | 62 | 0.0 | 3.0 | 0.00 | 0.00 | 0.00 | 37 | 1005.9 |
| 20260507220927 | 63 | 45 | 0.0 | 5.0 | 0.00 | 0.00 | 0.00 | 37 | 1005.9 |
| 20260507220427 | 63 | 46 | 1.0 | 7.0 | 0.00 | 0.00 | 0.00 | 36 | 1005.9 |
| 20260507215926 | 63 | 25 | 0.0 | 7.0 | 0.00 | 0.00 | 0.00 | 37 | 1005.9 |
| 20260507214927 | 63 | 347 | 1.0 | 8.0 | 0.00 | 0.00 | 0.00 | 36 | 1005.8 |
| 20260507214427 | 63 | 8 | 1.0 | 8.0 | 0.00 | 0.00 | 0.00 | 36 | 1005.8 |
| 20260507213426 | 64 | 33 | 0.0 | 4.0 | 0.00 | 0.00 | 0.00 | 38 | 1005.8 |
| 20260507212927 | 64 | 26 | 0.0 | 3.0 | 0.00 | 0.00 | 0.00 | 37 | 1005.7 |
| 20260507212426 | 64 | 54 | 0.0 | 3.0 | 0.00 | 0.00 | 0.00 | 38 | 1005.6 |
| 20260507211924 | 64 | 20 | 0.0 | 9.0 | 0.00 | 0.00 | 0.00 | 37 | 1005.6 |
| 20260507210425 | 64 | 39 | 0.0 | 2.0 | 0.00 | 0.00 | 0.00 | 38 | 1005.6 |
| 20260507205926 | 64 | 33 | 1.0 | 7.0 | 0.00 | 0.00 | 0.00 | 36 | 1005.5 |
| 20260507205424 | 64 | 60 | 1.0 | 12.0 | 0.00 | 0.00 | 0.00 | 37 | 1005.5 |
| 20260507204924 | 64 | 29 | 1.0 | 12.0 | 0.00 | 0.00 | 0.00 | 36 | 1005.4 |
| 20260507204424 | 64 | 58 | 0.0 | 4.0 | 0.00 | 0.00 | 0.00 | 36 | 1005.5 |
| 20260507203424 | 65 | 54 | 0.0 | 6.0 | 0.00 | 0.00 | 0.00 | 37 | 1005.6 |
| 20260507202922 | 65 | 59 | 0.0 | 6.0 | 0.00 | 0.00 | 0.00 | 36 | 1005.4 |
| 20260507202423 | 65 | 15 | 0.0 | 5.0 | 0.00 | 0.00 | 0.00 | 37 | 1005.6 |
| 20260507201922 | 65 | 37 | 0.0 | 3.0 | 0.00 | 0.00 | 0.00 | 36 | 1005.4 |
| 20260507201422 | 65 | 27 | 0.0 | 3.0 | 0.00 | 0.00 | 0.00 | 37 | 1005.5 |
| 20260507200922 | 65 | 12 | 0.0 | 3.0 | 0.00 | 0.00 | 0.00 | 37 | 1005.4 |
| 20260507200422 | 65 | 35 | 0.0 | 1.0 | 0.00 | 0.00 | 0.00 | 36 | 1005.5 |
| 20260507195923 | 65 | 272 | 0.0 | 2.0 | 0.00 | 0.00 | 0.00 | 36 | 1005.6 |
| 20260507194921 | 65 | 43 | 0.0 | 2.0 | 0.00 | 0.00 | 0.00 | 38 | 1005.7 |
| 20260507194423 | 65 | 4 | 0.0 | 2.0 | 0.00 | 0.00 | 0.00 | 37 | 1005.6 |
| 20260507193421 | 64 | 52 | 0.0 | 3.0 | 0.00 | 0.00 | 0.00 | 39 | 1005.8 |
| 20260507192920 | 64 | 104 | 0.0 | 5.0 | 0.00 | 0.00 | 0.00 | 37 | 1005.9 |
| 20260507192419 | 64 | 8 | 0.0 | 9.0 | 0.00 | 0.00 | 0.00 | 37 | 1006.0 |
| 20260507190921 | 63 | 73 | 1.0 | 8.0 | 0.00 | 0.00 | 0.00 | 37 | 1006.2 |
| 20260507185920 | 63 | 127 | 0.0 | 2.0 | 0.00 | 0.00 | 0.00 | 37 | 1006.2 |
| 20260507185419 | 64 | 33 | 0.0 | 5.0 | 0.00 | 0.00 | 0.00 | 38 | 1006.3 |
| 20260507184917 | 64 | 35 | 0.0 | 5.0 | 0.00 | 0.00 | 0.00 | 39 | 1006.5 |
| 20260507184418 | 64 | 26 | 0.0 | 6.0 | 0.00 | 0.00 | 0.00 | 39 | 1006.4 |
| 20260507183918 | 63 | 54 | 0.0 | 6.0 | 0.00 | 0.00 | 0.00 | 41 | 1006.5 |
| 20260507183419 | 63 | 98 | 0.0 | 4.0 | 0.00 | 0.00 | 0.00 | 38 | 1006.7 |
| 20260507182919 | 63 | 39 | 0.0 | 4.0 | 0.00 | 0.00 | 0.00 | 37 | 1006.7 |
| 20260507182418 | 63 | 34 | 0.0 | 2.0 | 0.00 | 0.00 | 0.00 | 39 | 1006.7 |
| 20260507181918 | 62 | 70 | 1.0 | 10.0 | 0.00 | 0.00 | 0.00 | 40 | 1006.8 |
| 20260507181418 | 62 | 77 | 1.0 | 10.0 | 0.00 | 0.00 | 0.00 | 39 | 1006.9 |
| 20260507180918 | 64 | 39 | 0.0 | 5.0 | 0.00 | 0.00 | 0.00 | 39 | 1006.9 |
| 20260507180417 | 63 | 354 | 0.0 | 5.0 | 0.00 | 0.00 | 0.00 | 37 | 1006.9 |
| 20260507175916 | 63 | 43 | 0.0 | 5.0 | 0.00 | 0.00 | 0.00 | 38 | 1007.0 |
| 20260507174414 | 63 | 27 | 0.0 | 4.0 | 0.00 | 0.00 | 0.00 | 38 | 1007.0 |
| 20260507173914 | 61 | 69 | 0.0 | 4.0 | 0.00 | 0.00 | 0.00 | 43 | 1007.0 |
| 20260507173415 | 60 | 95 | 1.0 | 8.0 | 0.00 | 0.00 | 0.00 | 42 | 1007.2 |
| 20260507172915 | 60 | 112 | 1.0 | 8.0 | 0.00 | 0.00 | 0.00 | 43 | 1007.2 |
| 20260507171913 | 63 | 283 | 0.0 | 3.0 | 0.00 | 0.00 | 0.00 | 43 | 1007.3 |
| 20260507171415 | 62 | 303 | 0.0 | 3.0 | 0.00 | 0.00 | 0.00 | 45 | 1007.5 |
| 20260507170414 | 60 | 52 | 1.0 | 11.0 | 0.00 | 0.00 | 0.00 | 46 | 1007.7 |
| 20260507165414 | 61 | 75 | 1.0 | 6.0 | 0.00 | 0.00 | 0.00 | 45 | 1007.7 |
| 20260507164915 | 60 | 117 | 2.0 | 11.0 | 0.00 | 0.00 | 0.00 | 43 | 1007.9 |
| 20260507164413 | 60 | 97 | 2.0 | 11.0 | 0.00 | 0.00 | 0.00 | 41 | 1007.9 |
| 20260507163915 | 59 | 70 | 1.0 | 10.0 | 0.00 | 0.00 | 0.00 | 45 | 1007.9 |
| 20260507163414 | 60 | 67 | 1.0 | 9.0 | 0.00 | 0.00 | 0.00 | 42 | 1008.1 |
| 20260507162913 | 60 | 21 | 1.0 | 10.0 | 0.00 | 0.00 | 0.00 | 45 | 1008.2 |
| 20260507162414 | 60 | 92 | 1.0 | 10.0 | 0.00 | 0.00 | 0.00 | 44 | 1008.2 |
| 20260507161913 | 60 | 15 | 0.0 | 4.0 | 0.00 | 0.00 | 0.00 | 43 | 1008.3 |
| 20260507161413 | 60 | 26 | 0.0 | 7.0 | 0.00 | 0.00 | 0.00 | 44 | 1008.3 |
| 20260507160913 | 60 | 34 | 0.0 | 7.0 | 0.00 | 0.00 | 0.00 | 44 | 1008.3 |
| 20260507160414 | 60 | 14 | 0.0 | 5.0 | 0.00 | 0.00 | 0.00 | 48 | 1008.4 |
| 20260507155914 | 60 | 43 | 0.0 | 5.0 | 0.00 | 0.00 | 0.00 | 48 | 1008.5 |
| 20260507155413 | 59 | 45 | 1.0 | 10.0 | 0.00 | 0.00 | 0.00 | 49 | 1008.5 |
| 20260507154914 | 58 | 59 | 1.0 | 10.0 | 0.00 | 0.00 | 0.00 | 50 | 1008.6 |
| 20260507154413 | 58 | 80 | 1.0 | 9.0 | 0.00 | 0.00 | 0.00 | 51 | 1008.7 |
| 20260507153915 | 59 | 23 | 1.0 | 6.0 | 0.00 | 0.00 | 0.00 | 55 | 1008.7 |
| 20260507153413 | 58 | 45 | 1.0 | 7.0 | 0.00 | 0.00 | 0.00 | 52 | 1008.6 |
| 20260507152914 | 58 | 82 | 0.0 | 7.0 | 0.00 | 0.00 | 0.00 | 51 | 1008.7 |
| 20260507152414 | 59 | 26 | 0.0 | 4.0 | 0.00 | 0.00 | 0.00 | 54 | 1008.8 |
| 20260507151913 | 58 | 151 | 0.0 | 3.0 | 0.00 | 0.00 | 0.00 | 58 | 1008.7 |
| 20260507151414 | 58 | 35 | 0.0 | 4.0 | 0.00 | 0.00 | 0.00 | 60 | 1008.8 |
| 20260507150914 | 58 | 50 | 1.0 | 5.0 | 0.00 | 0.00 | 0.00 | 57 | 1008.9 |
| 20260507150411 | 58 | 48 | 1.0 | 8.0 | 0.00 | 0.00 | 0.00 | 60 | 1009.0 |
| 20260507145411 | 57 | 74 | 1.0 | 13.0 | 0.00 | 0.00 | 0.00 | 60 | 1009.0 |
| 20260507144912 | 58 | 62 | 1.0 | 13.0 | 0.00 | 0.00 | 0.00 | 62 | 1008.9 |
| 20260507143412 | 57 | 12 | 0.0 | 4.0 | 0.00 | 0.00 | 0.00 | 65 | 1008.9 |
| 20260507142911 | 56 | 24 | 1.0 | 7.0 | 0.00 | 0.00 | 0.00 | 63 | 1008.9 |
| 20260507142411 | 56 | 10 | 0.0 | 7.0 | 0.00 | 0.00 | 0.00 | 64 | 1008.9 |
| 20260507141912 | 56 | 50 | 0.0 | 3.0 | 0.00 | 0.00 | 0.00 | 67 | 1008.9 |
| 20260507141409 | 56 | 41 | 0.0 | 3.0 | 0.00 | 0.00 | 0.00 | 67 | 1008.9 |
| 20260507140911 | 56 | 66 | 0.0 | 5.0 | 0.00 | 0.00 | 0.00 | 68 | 1009.0 |
| 20260507140409 | 56 | 47 | 1.0 | 6.0 | 0.00 | 0.00 | 0.00 | 67 | 1009.0 |
| 20260507135909 | 55 | 90 | 1.0 | 6.0 | 0.00 | 0.00 | 0.00 | 69 | 1008.9 |
| 20260507135410 | 55 | 56 | 1.0 | 6.0 | 0.00 | 0.00 | 0.00 | 70 | 1008.9 |
| 20260507134910 | 55 | 74 | 1.0 | 6.0 | 0.00 | 0.00 | 0.00 | 74 | 1009.0 |
| 20260507134409 | 54 | 45 | 0.0 | 4.0 | 0.00 | 0.00 | 0.00 | 74 | 1009.1 |
| 20260507133409 | 55 | 37 | 0.0 | 2.0 | 0.00 | 0.00 | 0.00 | 77 | 1009.1 |
| 20260507132909 | 55 | 61 | 0.0 | 2.0 | 0.00 | 0.00 | 0.00 | 79 | 1009.2 |
| 20260507132408 | 54 | 50 | 0.0 | 6.0 | 0.00 | 0.00 | 0.00 | 80 | 1009.2 |
| 20260507131908 | 54 | 41 | 0.0 | 6.0 | 0.00 | 0.00 | 0.00 | 80 | 1009.1 |
| 20260507130907 | 53 | 48 | 0.0 | 5.0 | 0.00 | 0.00 | 0.00 | 84 | 1008.9 |
| 20260507130408 | 52 | 45 | 0.0 | 6.0 | 0.00 | 0.00 | 0.00 | 86 | 1008.9 |
| 20260507125907 | 52 | 31 | 0.0 | 6.0 | 0.00 | 0.00 | 0.00 | 87 | 1009.1 |
| 20260507125408 | 51 | 51 | 0.0 | 3.0 | 0.00 | 0.00 | 0.00 | 88 | 1009.1 |
| 20260507124907 | 51 | 62 | 0.0 | 2.0 | 0.00 | 0.00 | 0.00 | 89 | 1009.2 |
| 20260507124407 | 51 | 17 | 0.0 | 2.0 | 0.00 | 0.00 | 0.00 | 90 | 1009.2 |
| 20260507123907 | 51 | 61 | 0.0 | 2.0 | 0.00 | 0.00 | 0.00 | 91 | 1009.1 |
| 20260507123406 | 51 | 65 | 0.0 | 0.0 | 0.00 | 0.00 | 0.00 | 91 | 1009.1 |
| 20260507122905 | 51 | 47 | 0.0 | 3.0 | 0.00 | 0.00 | 0.00 | 92 | 1009.0 |
| 20260507122406 | 51 | 63 | 0.0 | 3.0 | 0.00 | 0.00 | 0.00 | 92 | 1009.0 |
| 20260507121905 | 51 | 52 | 0.0 | 1.0 | 0.00 | 0.00 | 0.00 | 92 | 1009.1 |
| 20260507121405 | 51 | 57 | 0.0 | 1.0 | 0.00 | 0.00 | 0.00 | 92 | 1009.1 |
| 20260507120905 | 51 | 36 | 0.0 | 0.0 | 0.00 | 0.00 | 0.00 | 93 | 1008.9 |
| 20260507120406 | 51 | 25 | 0.0 | 0.0 | 0.00 | 0.00 | 0.00 | 93 | 1009.0 |
| 20260507115905 | 51 | 16 | 0.0 | 0.0 | 0.00 | 0.00 | 0.00 | 93 | 1008.9 |